Theta_e
329 331 332 333 336 335 334 336 337 336 338 339 340 340 338 337 338 341 347 345 344 348 349 349 348 348 351 350 349 351 350 349 349 349 349 350 350 349 348 349 348 348 350 350 349 348 346 346 345 345 346 347 348 348 347 343 341 342 344 344 343 342 342 343 344 344 343 342 341 341 341 341 341 340 338 336 335 335 335 334 334 333 335 336 336 335
325 327 331 334 336 335 333 335 336 332 333 332 332 333 332 332 335 342 348 344 343 346 349 350 349 349 350 349 348 350 351 351 350 348 348 349 349 349 349 349 349 349 350 351 350 348 346 346 345 344 345 347 348 349 348 345 343 342 344 345 344 344 344 344 345 345 344 343 342 342 342 342 340 338 337 336 336 336 335 333 332 333 335 336 336 335
324 326 329 330 331 331 332 334 332 332 333 330 330 329 326 330 336 339 345 346 342 344 352 350 347 351 353 349 347 348 349 350 349 349 348 348 348 348 349 349 349 349 350 351 351 349 347 346 345 345 345 345 347 349 348 348 346 344 345 346 345 345 345 345 345 345 344 343 343 343 342 341 340 339 337 337 336 335 333 331 329 330 332 334 335 334
323 327 327 326 328 331 331 332 331 332 330 329 331 328 325 333 336 335 342 346 344 346 352 351 349 358 357 349 348 347 347 348 347 349 348 346 348 348 347 350 349 349 350 352 351 349 349 348 347 347 346 345 345 347 348 348 348 346 346 346 345 346 345 344 345 344 344 343 343 343 341 340 339 338 337 337 335 331 328 326 326 328 330 332 333 332
324 327 327 325 329 332 330 331 332 330 329 330 331 328 326 331 337 341 344 344 345 345 347 349 350 358 359 351 351 347 344 346 345 346 347 346 347 347 348 349 350 350 350 352 352 349 349 348 348 347 345 345 345 345 347 348 348 348 346 346 346 346 345 344 344 344 344 343 342 341 340 340 339 338 337 334 331 327 325 324 325 327 329 330 330 330
325 324 325 327 330 331 329 332 332 329 328 328 331 332 328 332 343 347 343 342 343 341 344 346 341 350 361 355 349 347 345 345 344 342 343 345 347 347 349 349 350 350 351 352 352 350 348 346 346 346 345 346 345 345 347 347 347 346 344 344 345 345 344 344 344 343 343 342 341 341 340 339 338 336 333 329 326 325 324 324 325 327 327 328 328 327
328 325 327 330 330 329 329 329 330 329 326 325 330 333 333 340 348 345 342 342 342 341 344 344 339 346 359 354 345 346 347 347 346 343 343 344 347 347 348 350 350 350 351 352 352 350 347 345 346 346 343 344 345 345 347 347 346 344 343 343 343 343 343 343 343 343 342 342 342 340 338 335 332 329 327 327 326 325 325 326 327 327 327 327 326 324
327 327 327 329 329 328 330 327 330 332 326 326 332 337 346 353 350 343 343 343 344 344 342 343 347 348 352 354 348 346 347 350 350 347 345 344 346 348 348 349 350 350 352 351 351 350 348 347 348 345 343 344 346 346 346 346 345 344 342 343 343 343 343 342 342 342 340 339 337 334 331 328 325 325 326 327 326 326 326 327 327 326 326 325 324 324
326 327 327 329 327 327 329 328 332 331 327 331 333 333 341 349 348 345 342 343 345 342 336 340 344 342 349 359 352 348 349 350 350 349 346 345 345 348 349 349 350 351 352 351 351 350 348 349 348 344 344 345 345 345 345 345 344 343 343 343 342 342 341 339 338 336 335 333 331 328 325 322 322 325 326 326 326 326 326 326 326 325 324 324 324 323
324 325 326 328 328 329 331 331 333 331 329 332 330 330 335 342 347 346 342 343 341 337 336 339 338 335 347 359 352 350 351 347 348 349 346 345 346 348 349 350 350 351 352 352 350 350 350 349 347 344 344 345 345 344 344 344 343 343 343 342 341 339 336 334 333 332 332 330 327 323 321 321 322 325 326 326 326 325 325 325 324 324 324 324 324 324
322 322 325 327 328 330 331 329 328 330 328 327 328 332 333 338 345 349 353 348 337 337 338 337 339 335 340 354 353 347 349 350 353 353 347 345 347 348 350 350 350 351 352 352 351 350 350 349 345 344 344 344 344 344 344 344 343 343 342 341 338 334 332 332 331 330 328 325 322 320 320 321 322 323 325 325 325 325 325 324 324 324 324 324 324 324
323 321 325 327 325 327 327 327 325 325 325 327 334 335 327 333 340 340 348 344 332 337 338 334 339 335 333 352 358 348 347 351 355 356 350 347 347 348 349 350 350 351 351 351 350 350 349 347 344 344 345 344 344 344 344 343 343 341 339 337 335 332 331 330 328 326 323 321 321 321 321 319 320 323 324 325 325 325 325 324 324 324 324 324 324 324
326 323 324 323 323 325 325 327 326 326 328 329 336 335 324 328 331 328 335 338 333 335 334 333 337 335 336 350 359 355 354 351 350 349 347 346 347 348 349 350 350 350 350 350 350 349 348 345 344 345 344 344 344 344 343 342 341 339 336 334 334 332 330 327 324 323 323 323 323 322 321 320 321 322 324 324 324 325 325 324 324 324 323 323 323 323
322 325 326 323 324 326 324 326 324 326 332 328 329 330 325 325 323 324 331 331 328 329 331 335 338 339 341 345 353 356 354 351 349 346 344 344 347 348 349 349 349 349 350 349 349 349 346 344 344 344 344 344 344 343 341 340 338 338 335 333 334 332 329 326 325 325 324 324 323 322 322 321 321 322 322 323 323 324 324 323 323 323 323 323 323 323
319 322 328 325 324 325 325 327 327 328 332 330 333 331 327 329 324 323 330 327 323 329 333 334 335 340 342 344 350 353 349 348 349 347 346 346 347 349 348 348 349 349 349 349 349 349 346 344 344 344 345 344 344 342 340 338 338 338 336 333 333 331 328 327 327 326 326 325 323 323 322 322 321 321 320 321 322 323 323 323 323 322 322 322 322 322
317 320 330 327 322 325 327 326 328 331 328 327 331 328 323 330 330 324 327 328 327 333 338 337 340 346 348 348 351 351 348 349 348 347 348 347 348 348 347 347 347 348 349 349 350 348 345 344 344 345 346 344 345 342 338 337 338 338 335 333 333 331 329 328 327 326 325 324 323 323 322 321 320 320 319 320 321 322 322 323 322 322 322 322 321 321
317 320 331 326 321 326 327 326 328 327 327 326 324 325 324 329 334 328 323 328 328 325 333 343 354 359 351 348 352 351 350 350 348 347 347 346 347 346 346 346 346 346 348 349 349 347 345 344 345 346 345 344 344 339 334 337 339 337 335 333 332 331 329 328 327 325 324 323 323 323 321 320 319 318 318 319 320 322 322 322 321 321 321 320 320 320
320 320 329 328 324 324 323 325 328 324 327 328 322 325 328 325 332 331 323 327 327 323 334 346 357 361 349 345 353 355 353 351 348 348 347 345 346 345 346 346 345 346 346 347 348 346 344 344 344 345 345 343 341 338 336 339 338 334 333 332 331 330 329 328 326 324 323 323 323 322 321 320 319 317 317 317 319 321 321 321 320 320 320 319 319 319
320 318 327 329 324 324 323 323 325 324 325 327 324 326 326 323 327 326 321 323 322 326 344 351 352 353 350 354 363 363 359 353 348 348 347 347 347 345 346 346 345 346 345 345 347 345 344 344 344 345 344 341 339 339 339 338 335 332 331 331 330 329 329 326 325 324 323 323 322 321 321 320 318 317 316 315 317 318 318 318 318 318 318 318 318 318
323 319 323 328 322 322 325 324 324 326 324 323 325 325 326 328 327 324 323 322 320 329 344 347 348 355 356 362 373 372 362 353 349 349 348 347 347 346 346 346 345 345 345 345 346 344 343 344 344 344 343 341 340 340 340 336 332 331 330 331 330 328 327 325 324 324 323 322 322 321 320 319 318 317 315 313 314 314 314 314 315 315 316 316 317 317
325 319 320 329 327 320 323 325 326 329 324 323 325 323 323 326 324 324 323 321 326 341 349 342 343 358 363 359 365 367 358 351 349 349 347 347 348 347 346 346 346 345 345 344 344 343 343 344 343 343 342 341 341 340 337 334 332 331 330 330 329 328 326 325 324 324 323 322 321 321 320 319 317 315 313 312 311 311 311 312 313 314 315 316 315 315
323 322 321 325 322 319 326 330 329 329 327 326 327 325 325 324 323 322 321 324 337 351 352 345 343 360 366 355 355 358 352 349 349 348 348 349 348 347 347 346 345 346 344 344 344 342 342 343 342 342 341 340 340 337 334 332 331 331 330 329 328 327 325 324 324 323 322 322 321 320 319 318 316 314 311 311 310 309 309 311 312 313 314 314 313 313
326 326 321 321 323 324 325 326 323 322 325 325 324 326 328 325 324 322 320 329 341 345 347 346 345 359 362 351 351 352 348 348 348 348 348 348 348 347 347 346 345 344 344 344 343 341 342 342 341 342 340 336 336 334 332 332 331 331 330 329 327 326 325 324 323 322 322 321 320 319 318 317 315 312 310 310 310 309 310 310 311 312 312 312 312 311
329 325 320 325 341 340 332 332 326 324 330 329 328 330 327 324 327 327 330 343 348 346 350 346 344 357 358 348 347 346 346 348 347 347 348 347 348 348 346 347 345 344 344 344 343 341 341 341 341 341 338 333 333 334 333 333 332 331 331 328 326 325 324 323 322 322 321 320 319 318 318 317 314 311 310 310 311 310 310 310 311 311 311 311 311 310
325 328 322 321 332 335 332 336 330 328 336 337 338 340 333 335 340 334 339 352 349 345 349 344 347 360 355 345 346 345 345 347 345 346 348 346 347 347 346 347 344 342 343 343 341 340 340 340 340 340 337 333 334 335 335 334 332 331 330 326 325 324 323 322 322 321 320 319 318 318 317 316 314 312 311 311 311 310 309 311 311 311 311 311 310 310
324 332 329 321 321 322 325 330 325 327 337 335 340 345 339 342 345 337 339 344 339 339 344 345 350 358 352 346 348 347 345 347 346 346 347 346 347 346 346 345 342 341 342 342 340 339 338 339 339 340 337 334 335 336 335 334 331 330 327 325 324 323 322 322 321 320 319 318 319 318 317 316 314 313 312 311 311 310 310 311 312 311 311 310 308 308
332 330 337 340 332 329 339 347 337 333 336 334 338 343 342 342 340 337 338 336 337 341 346 353 357 358 356 352 350 348 346 347 346 345 346 346 346 346 345 344 341 341 342 342 340 338 337 338 339 339 337 335 335 335 334 334 330 327 325 323 323 322 321 321 320 319 319 318 318 318 317 317 316 315 313 312 311 311 311 312 312 312 311 309 308 308
335 324 331 345 339 333 341 343 339 341 340 337 340 341 344 347 343 338 335 334 340 339 341 357 364 358 357 354 350 348 346 346 345 344 345 346 345 346 345 343 342 342 342 341 339 337 336 337 338 337 335 333 332 332 332 331 328 325 324 323 323 321 320 319 319 319 318 318 317 317 317 318 317 316 315 313 312 312 312 312 312 312 311 309 308 310
337 324 324 337 343 342 339 334 338 349 347 346 352 351 351 358 354 345 340 343 350 342 336 351 360 357 355 352 349 346 345 344 345 344 344 345 346 345 344 343 343 342 341 339 338 337 335 336 336 336 334 332 331 330 330 328 326 324 324 323 321 319 318 319 318 317 317 316 316 316 317 318 318 317 316 315 313 312 312 312 312 312 311 308 309 310
334 331 329 338 347 346 345 344 345 352 354 355 357 355 357 361 359 354 352 355 361 354 346 349 356 356 352 348 347 345 343 343 343 343 345 346 345 345 343 343 342 342 340 338 337 337 335 336 336 335 333 332 331 330 329 327 325 324 322 320 319 318 317 317 317 316 315 315 315 316 318 318 318 317 317 316 315 313 312 312 312 312 310 308 309 310
329 329 338 355 354 342 344 349 348 352 360 359 355 354 357 359 357 360 363 360 363 363 353 351 358 358 348 344 345 343 342 342 343 344 345 345 345 344 343 343 342 340 340 338 337 336 335 335 335 334 333 332 331 330 329 327 324 322 320 319 318 317 316 316 315 314 314 315 315 317 319 318 318 318 317 317 316 315 313 312 312 311 309 309 310 311
334 330 339 357 352 338 341 345 344 349 351 349 350 351 353 356 354 357 359 355 359 366 357 351 358 358 348 343 343 342 342 342 343 344 345 344 344 344 342 342 341 339 339 338 337 337 336 335 335 334 333 331 330 331 328 325 321 319 318 318 317 316 315 316 315 313 314 316 316 317 318 319 318 318 318 317 317 316 315 312 312 311 311 311 311 311
340 335 337 349 346 336 338 344 346 348 341 339 344 342 345 353 353 351 355 354 356 360 359 358 361 356 346 344 344 343 342 343 344 345 345 345 344 343 342 342 340 338 338 338 337 337 336 335 335 334 332 331 330 328 324 321 318 317 317 317 316 316 315 316 315 314 315 316 315 316 318 319 319 319 318 318 317 317 316 313 312 312 312 311 312 312
344 337 337 351 347 335 339 350 347 341 336 338 344 342 341 350 356 358 358 356 354 356 357 358 355 349 345 345 346 345 343 344 345 345 345 345 345 344 342 341 340 339 338 338 338 337 336 335 334 333 332 331 328 323 319 318 317 316 316 316 316 316 316 315 315 315 315 316 315 316 318 319 319 318 319 318 317 317 316 314 312 312 312 312 312 313
346 339 339 353 350 338 347 352 338 332 340 347 350 346 343 348 359 361 356 354 356 357 357 352 347 345 345 345 344 344 343 344 345 345 345 344 344 344 343 341 341 340 338 338 337 337 336 335 333 331 331 329 325 319 318 317 316 316 317 317 317 316 316 315 315 315 316 315 314 315 318 319 319 319 319 317 316 316 315 314 313 312 312 313 313 313
341 346 346 348 343 338 343 340 330 333 345 350 349 348 345 348 353 350 346 350 353 353 356 353 345 344 344 344 344 345 344 345 345 346 346 344 344 344 344 343 342 340 339 338 337 337 336 335 333 332 331 327 321 318 317 316 316 317 317 317 317 316 315 315 316 315 315 314 314 315 317 318 317 317 316 315 314 314 314 314 313 313 312 313 313 314
336 347 349 341 337 342 343 339 339 343 344 348 355 353 347 350 353 348 346 351 350 345 348 348 345 344 344 344 345 345 344 345 345 344 345 345 344 344 343 344 343 340 339 338 337 337 336 334 333 333 329 323 318 317 317 316 316 317 317 317 316 315 314 315 315 315 314 314 314 314 314 315 314 314 314 313 313 313 314 314 314 313 312 312 313 314
335 340 342 336 337 345 349 345 345 344 343 352 361 354 343 343 348 350 351 354 351 343 343 345 345 345 345 345 345 345 345 346 346 344 343 344 345 344 343 344 342 340 338 338 337 336 335 334 333 330 324 319 317 317 316 316 316 317 317 317 315 314 314 314 314 314 314 314 315 314 314 314 313 313 313 313 313 313 314 314 314 314 313 313 313 314
338 341 346 342 339 343 348 347 347 345 347 356 359 348 339 337 340 345 346 349 349 343 341 343 343 343 345 346 345 344 346 348 347 342 341 344 345 344 342 342 341 339 338 338 337 336 335 333 330 325 319 317 317 317 317 317 317 316 316 315 313 313 314 314 314 314 314 315 314 314 314 314 313 313 313 313 314 314 315 315 315 315 315 314 314 314
350 352 351 345 342 346 348 346 346 346 346 351 354 346 338 338 340 341 339 341 345 342 342 343 342 343 345 345 344 345 346 348 346 342 341 343 344 342 340 340 339 338 337 337 336 335 334 332 326 320 317 317 317 316 317 318 317 315 314 313 312 313 313 313 313 313 314 314 314 314 314 314 313 313 313 313 314 315 315 315 315 315 315 314 314 314
354 355 349 347 347 349 351 346 343 348 351 351 351 345 337 336 340 342 343 343 344 342 342 343 343 343 344 344 344 344 342 342 343 342 342 343 342 341 340 339 339 337 337 337 335 334 332 328 322 317 317 317 317 317 318 318 316 314 313 312 312 313 313 313 313 312 313 313 314 314 314 314 313 313 313 314 314 314 314 314 314 315 314 314 314 314
343 344 341 342 341 346 356 353 342 345 350 345 344 341 336 337 344 348 347 344 341 342 343 342 343 344 343 343 344 342 340 340 341 342 342 342 342 341 340 339 338 337 336 335 334 332 329 323 318 317 317 317 317 318 318 318 316 314 313 312 312 313 314 314 313 313 313 313 313 314 314 314 313 313 313 314 314 314 314 314 314 314 314 314 314 314
342 341 340 342 343 345 352 348 340 342 344 341 342 344 341 343 348 347 343 341 342 344 343 341 343 344 343 343 343 341 340 340 340 341 341 341 342 341 339 338 337 335 335 334 332 328 323 319 318 318 317 317 318 318 318 318 317 315 313 312 313 314 314 314 314 314 314 314 314 314 314 313 312 312 313 314 314 314 314 314 314 314 314 314 314 314
344 345 346 349 350 350 350 348 346 346 343 340 344 348 345 342 343 342 342 343 344 343 343 343 343 343 344 344 342 340 339 339 339 340 339 340 340 339 338 337 335 334 334 332 328 323 319 317 318 317 317 318 319 318 319 319 319 315 313 312 313 314 314 315 315 315 315 314 315 315 314 313 313 312 313 314 314 315 314 314 315 315 315 314 314 315
339 342 345 346 346 347 351 353 348 342 338 339 342 344 343 341 341 342 343 344 343 343 344 344 342 342 343 343 341 340 339 338 338 338 338 339 339 338 338 336 334 333 332 329 324 319 317 317 317 317 318 319 319 319 320 320 318 315 312 312 313 314 314 315 315 315 315 315 315 315 315 315 314 314 315 315 315 315 315 315 315 315 315 315 315 315
339 338 343 347 345 343 343 343 340 337 337 341 342 342 343 342 342 343 343 344 344 345 344 343 343 343 343 342 341 340 339 338 338 338 338 339 338 337 337 335 333 332 329 325 321 318 316 317 317 318 319 319 319 320 320 319 317 314 312 313 313 314 314 315 315 315 315 315 315 315 316 316 315 315 315 315 316 316 316 316 316 316 316 316 316 316
344 338 346 352 349 347 346 342 338 337 337 340 342 343 344 344 344 344 344 344 345 344 343 343 344 343 342 342 342 340 339 339 338 338 338 338 337 336 335 334 332 328 324 321 319 317 317 317 317 318 319 318 319 320 318 316 315 314 312 312 313 313 314 314 314 315 315 315 315 315 315 316 316 316 316 316 316 316 316 316 316 316 317 317 317 317
346 340 349 355 351 348 346 339 334 335 337 341 343 343 343 343 344 344 344 344 343 344 344 343 343 343 342 341 341 340 340 340 339 339 338 337 336 335 333 331 328 324 321 319 318 317 317 318 317 317 317 316 317 317 315 314 314 313 311 311 313 313 314 314 314 314 315 315 315 315 315 316 317 317 317 317 316 316 316 316 316 316 316 317 317 317
345 342 344 348 347 344 340 336 335 338 341 340 341 343 343 343 343 342 343 344 344 344 343 342 342 343 342 341 341 340 340 339 339 339 338 335 334 332 330 326 324 321 320 319 318 318 319 318 317 317 316 315 315 314 312 313 314 313 312 312 312 312 313 314 314 315 315 315 315 315 315 316 317 318 318 318 318 317 317 317 317 317 317 317 317 317
345 348 345 347 352 352 347 341 339 344 346 340 339 343 344 342 342 342 342 344 344 343 343 343 342 342 341 341 340 338 338 339 338 338 336 333 330 329 327 324 322 321 320 319 319 319 319 318 317 317 316 315 313 313 312 312 313 314 313 313 312 312 313 313 314 315 316 315 315 315 315 316 318 319 319 319 319 319 318 318 318 318 317 317 317 318
341 345 347 354 357 352 345 338 336 341 342 338 338 342 343 342 342 341 342 343 343 343 343 342 341 341 341 340 338 335 335 337 337 336 334 330 328 327 326 324 321 321 320 320 319 319 318 318 317 317 316 315 314 313 313 312 312 314 314 314 314 314 313 313 313 314 315 315 315 315 315 316 318 319 319 319 319 319 318 318 318 318 318 318 317 317
Wind_Speed
3 1 2 5 6 6 7 8 8 7 7 6 4 4 6 6 6 5 4 8 15 10 7 10 7 7 7 6 9 16 17 16 17 15 16 18 18 18 17 16 15 13 11 10 9 9 7 7 5 5 5 5 5 5 6 7 8 8 9 10 10 9 9 9 9 8 7 6 6 6 5 5 7 7 6 7 7 8 9 9 9 9 9 9 11 11
3 2 5 7 8 8 9 8 6 5 5 4 4 5 6 5 6 5 5 10 13 8 5 6 6 8 7 4 7 14 15 15 20 19 20 21 20 20 19 18 17 14 13 11 10 10 8 7 6 5 5 5 4 5 7 8 8 9 9 10 10 9 8 7 6 6 4 4 3 3 4 4 5 5 5 6 7 8 9 9 10 10 9 9 10 10
3 6 9 8 7 6 6 6 6 5 5 3 3 3 4 4 3 2 1 8 11 6 4 5 7 8 6 3 5 12 14 17 25 25 23 22 21 21 21 20 18 16 14 13 12 10 8 8 8 6 5 5 4 5 7 9 8 8 9 9 9 8 7 6 6 5 3 3 2 2 3 2 2 3 4 6 7 8 9 10 9 9 8 9 9 9
2 6 5 6 8 7 3 3 5 3 1 2 2 2 5 3 3 1 2 5 6 3 3 6 5 4 5 4 4 12 16 15 22 26 23 22 22 22 20 20 19 17 16 14 13 11 10 10 10 8 6 5 5 6 6 8 8 9 9 8 8 7 7 7 7 6 4 3 2 1 1 0 1 3 4 5 6 8 10 9 9 8 8 8 9 10
7 6 0 3 4 7 3 1 3 3 3 2 4 4 6 4 3 3 3 5 3 4 3 7 3 5 4 5 6 8 13 12 15 20 20 22 24 20 16 17 19 18 17 16 14 13 12 11 11 8 7 7 7 6 7 8 8 8 9 8 8 7 7 7 7 5 3 2 2 1 1 1 2 2 3 5 7 9 10 9 9 9 9 9 10 11
9 7 1 2 2 4 3 3 1 2 2 5 4 8 9 4 5 9 9 8 4 2 3 6 2 5 4 5 8 5 6 9 11 14 17 21 23 21 17 15 17 18 18 17 15 15 13 11 11 9 8 9 9 8 8 8 8 8 8 8 8 8 8 7 6 4 3 2 1 1 2 3 4 4 5 7 9 10 11 10 9 9 9 10 12 13
5 3 3 2 2 1 2 3 3 5 2 3 5 6 4 3 10 13 12 7 4 3 6 5 4 4 4 6 10 6 4 7 8 10 15 20 22 23 20 16 17 19 19 18 16 16 14 11 11 9 10 11 11 10 9 9 8 8 8 8 8 8 8 7 5 4 2 2 2 3 4 4 5 6 7 9 10 9 9 8 8 9 10 11 13 14
3 3 2 3 1 1 2 3 4 6 7 2 6 5 5 8 11 14 13 7 3 3 2 3 4 1 4 7 7 5 4 6 6 7 10 18 23 23 21 18 17 20 21 20 19 18 16 12 11 10 11 12 12 12 10 9 8 8 8 8 8 7 6 5 4 3 2 2 2 3 4 5 6 8 9 8 8 7 7 7 8 10 11 13 14 15
1 1 3 3 2 2 4 4 6 6 4 6 5 4 3 6 8 10 9 3 1 4 1 4 2 2 4 6 2 3 4 8 9 8 9 16 23 21 19 19 18 20 22 22 21 20 16 13 12 12 12 13 13 12 11 10 9 8 8 7 6 6 5 4 3 2 1 1 3 4 6 7 7 8 8 7 5 5 6 8 9 10 12 13 15 16
4 4 5 4 3 4 6 6 7 7 3 5 2 5 4 5 5 4 4 3 3 2 3 7 6 3 4 6 1 3 4 9 9 6 9 17 21 19 19 20 20 21 22 22 22 20 16 14 14 14 15 14 14 12 11 10 9 8 7 6 6 5 4 4 3 1 2 3 5 6 7 7 7 7 6 5 5 6 7 9 10 11 12 13 14 14
6 4 2 4 5 7 6 6 7 8 6 2 5 6 7 7 5 4 3 4 4 2 4 6 8 4 2 5 3 4 3 4 3 4 7 13 17 19 21 23 23 23 23 23 22 19 16 17 17 17 16 16 14 13 11 10 8 7 6 6 6 6 5 4 3 3 5 6 7 8 8 8 7 6 6 5 5 6 8 10 11 12 12 13 13 14
7 5 2 3 9 7 2 3 3 2 2 2 4 4 4 4 4 5 4 3 2 5 5 3 6 5 2 6 4 4 2 2 5 6 8 12 17 22 24 25 25 25 25 24 23 21 20 21 21 19 18 16 15 13 12 10 8 7 7 7 7 7 6 4 5 5 6 8 9 10 10 10 9 8 7 6 7 7 9 10 10 11 12 13 13 14
5 5 4 2 7 7 5 1 2 4 4 4 3 4 3 2 2 2 2 1 2 6 4 2 6 4 5 7 3 3 5 2 3 7 12 17 21 24 26 26 26 25 25 24 23 23 23 24 24 21 19 17 16 15 13 10 8 8 8 7 6 6 6 5 5 6 6 8 9 12 12 11 10 9 8 8 8 8 9 9 10 11 12 13 13 13
3 6 5 3 5 7 8 4 2 3 0 5 4 3 3 2 2 1 3 1 3 5 4 1 5 4 5 4 2 3 6 9 8 6 9 16 21 24 25 26 25 23 24 24 23 24 25 26 25 22 20 18 17 16 12 9 9 9 8 6 5 6 6 5 4 5 7 9 11 12 12 11 11 11 10 10 9 9 9 10 11 12 13 13 13 13
1 5 4 4 3 6 9 7 7 5 2 3 4 5 4 4 4 3 4 3 3 3 2 2 3 4 3 3 3 3 6 10 10 5 5 11 18 22 23 23 23 23 23 23 24 25 27 27 26 23 21 19 19 15 10 10 10 9 8 7 6 5 5 3 3 5 7 9 11 12 12 12 12 13 12 11 10 10 10 11 12 12 12 12 12 12
2 5 8 6 2 6 7 5 7 6 1 3 3 5 2 4 5 2 3 5 4 2 1 1 2 3 3 3 1 2 5 6 1 8 12 14 19 22 22 21 22 24 24 24 25 27 28 28 26 24 22 21 19 14 10 11 12 10 9 8 5 4 4 3 5 7 8 9 11 12 12 12 13 14 13 12 11 10 10 10 11 10 10 11 11 12
2 5 7 4 2 6 8 7 6 5 3 1 2 3 4 4 7 3 1 0 3 2 1 1 3 4 3 2 1 4 5 5 6 9 13 16 19 21 21 20 20 22 24 26 27 28 29 28 26 26 25 22 18 12 10 12 12 10 9 6 4 4 5 5 7 8 10 10 11 11 12 13 14 14 13 12 11 10 10 10 10 9 10 10 11 11
3 4 7 2 4 7 7 7 2 3 5 3 2 5 2 2 4 3 1 3 3 2 3 1 2 4 2 2 2 3 3 3 4 7 11 14 17 18 18 18 18 19 21 24 26 28 28 27 27 28 25 20 15 11 12 14 12 10 7 5 5 5 4 6 8 10 10 9 10 11 12 13 14 14 13 12 11 9 9 9 9 9 9 9 10 10
3 2 8 4 4 5 1 4 2 4 1 3 3 3 3 1 0 1 2 0 0 2 3 3 4 3 3 3 2 1 4 5 5 7 8 11 14 16 16 17 18 18 18 22 25 25 26 27 28 27 24 18 13 13 15 15 12 10 9 7 6 5 5 8 10 9 8 8 9 11 12 14 14 14 13 11 9 8 8 9 9 9 9 8 8 9
3 1 5 5 3 2 3 2 2 4 3 3 2 2 2 3 3 2 2 2 3 2 2 3 4 3 5 4 4 6 8 7 7 7 8 10 13 15 17 19 19 18 18 22 25 24 26 27 26 26 24 18 15 17 17 15 13 12 10 8 6 5 8 10 9 7 7 8 9 11 12 14 14 14 13 11 10 10 9 9 9 9 8 7 7 8
2 2 3 5 5 2 1 2 6 6 2 2 2 1 1 1 2 2 1 2 2 3 2 1 2 5 5 3 5 7 7 7 8 7 8 11 14 15 17 19 18 17 17 21 22 22 26 27 24 24 23 20 19 20 17 14 14 13 10 6 6 7 9 8 6 5 6 8 9 11 12 14 14 14 13 12 13 13 12 12 12 10 9 8 9 11
3 3 3 4 4 2 6 6 6 7 5 5 4 4 4 3 3 2 1 2 2 4 4 4 2 6 5 2 3 4 3 6 8 9 9 12 14 14 15 17 16 15 17 20 19 20 26 26 22 21 22 22 23 20 16 15 16 14 9 6 6 7 8 6 5 6 6 7 9 11 12 14 14 14 13 14 15 15 15 14 14 12 11 11 12 14
4 4 2 4 4 5 10 7 4 5 4 5 3 3 4 4 5 5 5 3 2 3 1 3 1 6 5 1 3 3 6 10 12 12 10 12 13 13 13 14 14 13 15 17 17 20 26 25 21 20 19 19 20 18 18 17 16 13 8 6 7 7 7 6 5 6 6 7 9 11 13 14 14 13 14 15 17 17 16 15 13 12 12 13 14 14
3 3 2 4 4 5 8 5 1 2 3 4 1 1 4 3 3 5 5 4 4 3 2 3 1 5 4 2 3 3 10 14 13 11 10 11 11 10 11 11 11 12 14 15 16 21 24 23 21 20 18 17 18 19 21 18 15 12 8 8 9 8 7 6 5 5 6 8 9 11 12 13 12 12 14 16 18 17 16 16 16 15 14 14 14 14
4 2 3 0 4 5 6 6 5 3 2 2 2 1 3 4 6 5 2 3 3 4 4 4 3 6 3 3 4 3 7 9 11 11 10 10 10 10 10 9 8 10 11 14 17 20 22 21 21 19 16 18 19 20 20 17 14 12 9 9 9 8 7 5 4 5 6 8 9 10 11 12 13 13 14 16 17 17 17 19 20 19 17 16 15 15
6 2 4 5 2 1 1 1 2 2 1 1 0 1 2 4 7 6 3 3 2 4 4 4 5 5 3 2 4 5 6 8 11 13 11 11 12 11 10 11 11 10 12 15 17 19 21 21 20 16 14 16 18 17 15 15 14 12 11 11 10 7 6 5 4 5 6 7 7 9 11 12 14 15 15 15 15 16 18 19 20 19 18 17 16 17
3 1 3 7 6 6 6 6 6 2 2 1 2 3 3 1 2 4 5 3 4 5 3 5 5 3 2 4 6 6 8 8 9 12 12 12 13 12 12 14 13 13 15 16 16 19 20 19 17 14 13 15 16 14 14 14 13 12 13 12 9 6 5 5 4 5 6 6 8 9 10 11 14 15 15 14 14 15 17 18 18 18 17 17 17 19
4 1 2 5 3 5 5 6 5 2 3 1 2 3 4 3 2 4 5 3 5 8 2 6 6 5 4 7 8 6 7 8 8 11 13 13 14 14 14 15 15 15 15 14 15 17 18 17 16 15 15 15 16 16 16 14 13 12 11 9 7 6 6 6 5 6 7 6 7 8 9 10 12 13 14 14 13 14 15 16 16 16 16 16 17 19
5 2 2 3 3 5 3 3 3 3 4 3 4 4 4 4 4 5 4 2 6 6 4 6 7 4 1 4 8 7 8 9 10 12 13 14 15 16 16 16 17 16 15 15 16 16 16 17 17 17 16 15 16 16 15 14 13 11 8 7 7 7 6 6 6 6 6 6 6 7 8 9 11 12 13 13 13 13 14 14 14 14 14 15 16 18
5 2 1 3 4 8 8 7 4 3 5 4 5 4 4 5 6 6 5 3 6 5 2 2 7 3 2 3 7 9 11 12 12 13 15 15 16 17 18 17 17 16 16 17 17 17 17 17 16 15 15 15 14 14 13 13 11 9 7 8 8 7 6 6 6 6 6 6 7 8 8 8 9 10 11 12 12 12 12 13 14 13 12 14 15 16
4 1 2 4 5 6 9 9 7 4 6 5 6 6 6 7 7 6 3 3 5 4 3 5 7 3 3 4 9 13 16 15 14 15 15 16 17 19 20 18 17 17 17 16 17 18 18 16 14 14 15 15 14 13 12 11 9 8 9 9 8 7 8 7 6 6 6 7 7 6 6 7 7 8 10 10 11 11 11 11 12 12 11 12 13 13
4 3 1 4 5 4 6 7 7 6 8 7 6 7 7 6 4 2 2 2 2 3 4 6 3 1 1 7 11 14 17 15 15 16 16 17 18 20 21 20 19 19 18 16 16 17 16 14 13 14 16 16 14 12 10 9 9 10 10 9 8 8 8 6 6 7 7 7 7 5 4 4 5 7 8 9 9 10 9 9 10 10 10 10 11 12
3 5 2 3 4 2 4 5 6 6 7 4 4 3 3 3 3 1 2 3 1 4 5 3 2 3 6 9 9 10 12 13 15 16 17 19 20 19 20 21 20 21 19 16 15 16 15 14 14 16 17 15 13 11 9 9 10 10 10 10 9 8 6 5 5 6 6 6 5 3 2 2 3 5 6 7 8 8 8 8 8 8 8 9 10 11
4 5 3 2 4 2 4 6 6 5 2 3 5 4 3 2 4 3 1 2 3 2 3 2 2 5 8 8 8 10 10 12 15 15 17 21 22 20 20 21 21 21 18 15 16 17 15 16 17 17 16 14 12 12 11 10 10 11 11 10 9 7 5 4 4 5 6 6 4 2 2 2 1 3 5 5 6 5 6 6 7 7 7 7 8 9
5 5 2 1 4 3 2 6 5 1 5 6 6 4 3 4 7 7 4 1 1 1 3 4 5 7 7 6 9 13 13 14 15 13 14 18 21 21 20 20 20 19 16 16 19 17 16 18 20 19 16 13 12 12 12 12 12 12 11 9 8 6 4 3 4 5 6 5 4 3 3 4 3 2 3 4 4 4 4 4 5 6 6 6 7 8
6 6 3 3 3 3 2 4 2 5 7 5 6 4 3 6 6 6 3 2 3 4 4 6 7 6 9 13 15 17 18 18 15 11 13 17 18 19 20 20 18 16 16 19 20 17 17 19 20 17 14 12 12 12 13 13 13 11 10 8 7 6 5 4 5 6 6 6 6 6 6 6 5 4 3 3 3 3 3 3 4 4 4 4 6 7
6 6 4 3 1 3 4 1 2 3 5 4 3 2 4 4 4 5 2 4 5 5 6 9 9 7 12 17 18 21 21 18 12 9 11 16 16 16 17 16 14 14 17 19 17 16 17 19 18 15 13 13 13 13 14 13 12 10 9 7 6 6 6 6 6 6 7 7 7 8 8 8 6 5 4 3 3 3 3 3 3 3 2 3 4 6
4 3 5 5 1 3 5 2 2 2 3 5 6 6 3 3 4 5 4 3 4 7 11 12 10 11 14 17 19 21 19 11 5 5 11 16 17 17 16 14 12 13 17 19 18 18 19 19 17 14 13 14 15 14 14 12 10 9 8 7 6 7 7 7 7 7 6 6 6 7 7 7 5 4 3 2 3 4 5 5 4 3 3 3 5 6
6 2 4 6 3 3 5 3 3 3 4 6 7 7 3 3 5 4 5 4 4 11 16 14 13 14 16 19 20 18 11 4 3 6 12 17 17 16 16 15 13 14 16 18 18 19 20 19 17 15 15 16 16 15 13 11 9 8 8 8 8 9 8 7 6 6 6 5 5 5 5 5 4 4 4 3 3 4 5 5 5 4 5 5 6 7
6 4 4 5 4 3 5 3 3 3 2 3 5 5 3 7 5 7 4 5 6 15 20 19 19 18 19 21 19 13 6 3 6 11 15 16 15 13 14 16 16 17 18 18 18 19 20 18 16 16 17 16 16 14 13 10 9 8 8 9 11 11 10 9 8 7 6 5 5 5 4 5 5 5 5 4 4 4 5 5 6 6 6 6 7 8
3 4 2 4 4 4 5 3 2 3 3 4 4 5 10 9 5 5 2 6 10 20 22 23 24 24 25 24 18 11 5 2 9 18 19 15 13 14 14 16 18 17 18 19 20 20 19 17 16 17 17 16 15 14 12 10 9 9 9 10 12 12 12 10 9 9 7 6 6 5 4 4 5 5 5 5 4 4 5 5 5 6 6 6 7 9
0 2 1 3 4 3 3 3 0 3 4 3 6 9 10 6 2 3 4 6 17 25 23 22 25 26 26 24 18 13 9 7 12 21 21 15 15 16 16 17 18 18 19 20 21 20 18 18 18 18 17 16 15 13 12 11 9 8 9 11 12 13 12 10 9 9 8 7 6 5 4 4 4 4 4 4 4 3 3 3 4 5 6 6 7 9
2 2 1 2 3 3 3 3 2 1 4 6 9 7 4 2 4 7 6 8 19 26 23 23 25 26 26 21 16 13 13 13 18 22 21 18 17 18 18 18 19 22 23 22 21 19 18 19 19 18 17 16 14 12 11 10 7 7 9 11 12 13 11 10 9 8 7 7 6 5 5 4 3 3 3 2 2 2 3 4 5 6 7 9 10 10
2 2 1 3 2 3 3 2 3 3 4 3 5 2 3 3 4 8 12 14 18 23 23 23 23 24 25 23 18 16 15 18 21 23 22 21 20 20 20 20 22 25 24 22 21 19 18 18 18 17 16 15 13 11 10 7 5 7 9 10 12 12 11 9 8 7 6 5 4 4 4 4 3 3 2 1 3 4 5 6 7 8 9 10 11 11
2 3 4 2 2 3 3 4 4 2 3 1 0 1 2 4 4 8 14 19 22 23 22 23 24 24 24 22 20 18 17 20 23 24 23 22 22 22 22 23 25 25 22 20 20 18 17 17 18 17 16 14 12 11 9 5 4 6 9 11 12 12 9 8 7 5 4 3 2 2 2 2 2 1 1 2 3 5 6 6 8 8 9 9 10 11
2 3 4 3 0 1 2 3 3 5 7 6 5 5 7 9 8 8 13 21 24 23 21 22 24 24 24 22 19 18 19 22 25 25 23 23 23 23 23 24 24 22 20 20 19 17 17 17 17 17 16 14 12 10 7 5 5 6 8 11 12 11 9 7 6 4 3 2 1 1 1 2 2 3 4 5 6 7 7 7 8 8 8 9 9 10
1 1 3 3 3 2 1 4 5 5 7 10 12 11 10 11 11 12 15 18 21 21 20 20 21 23 24 21 17 18 22 25 26 25 23 23 24 25 25 25 24 21 19 19 18 18 18 18 17 16 15 13 12 9 7 7 7 6 7 9 10 9 8 7 5 3 2 1 1 2 3 3 3 5 6 7 9 10 10 9 10 10 11 11 11 11
1 3 3 3 3 2 2 4 3 5 8 11 12 11 11 12 13 14 15 16 18 19 18 18 19 22 22 19 16 18 24 26 25 25 24 25 25 26 26 25 23 22 20 19 19 19 18 17 16 15 13 12 11 10 9 9 9 7 7 7 7 7 7 6 4 2 1 1 3 4 5 5 5 6 7 8 9 10 11 10 11 11 12 12 13 13
1 2 2 3 3 2 1 3 2 7 6 5 7 10 13 14 14 14 14 15 17 18 18 19 19 18 18 17 16 19 24 26 24 24 25 27 27 26 26 24 23 22 20 19 20 19 16 15 14 13 12 11 10 10 10 10 9 7 6 6 6 6 5 4 3 1 1 3 5 6 6 6 6 7 8 8 8 9 10 10 11 12 13 13 13 13
2 1 2 4 4 0 3 6 6 4 2 5 8 11 14 14 12 13 15 15 16 18 18 20 20 18 16 16 16 19 23 25 24 24 25 26 26 25 25 24 23 22 20 19 19 18 15 14 13 12 11 10 8 8 9 9 10 8 6 5 5 3 3 3 3 2 3 4 5 6 8 8 8 8 8 9 10 10 11 11 11 12 13 13 12 12
2 5 5 5 3 3 7 12 11 4 4 9 12 12 15 14 11 13 15 15 16 18 18 19 21 21 18 17 17 18 20 23 24 24 24 24 25 24 24 23 23 22 21 19 19 18 15 13 12 12 11 9 7 7 7 9 10 10 8 6 5 3 2 1 2 3 4 5 6 8 9 9 8 7 8 8 9 11 12 12 10 9 10 12 13 12
Wind_Direction
84 117 209 204 204 170 172 188 187 185 178 182 202 238 231 224 241 210 184 186 164 162 215 203 212 241 230 212 185 181 184 200 218 228 236 237 233 223 211 207 204 196 192 191 195 197 196 200 203 200 186 173 168 154 148 151 148 147 146 149 151 148 142 137 139 135 115 99 95 97 93 73 66 55 32 20 13 9 10 9 6 4 2 358 355 356
25 281 237 216 210 172 171 192 175 159 178 186 191 224 241 232 241 223 174 176 163 165 219 190 204 245 242 234 181 174 177 199 211 218 228 231 230 223 213 207 204 198 195 194 196 196 192 193 195 195 187 177 177 164 162 166 161 158 154 154 157 155 153 151 152 147 128 109 90 84 81 62 56 46 23 10 5 360 356 355 358 0 357 354 354 353
340 268 249 211 185 142 153 175 149 158 179 181 188 215 264 237 226 298 113 161 163 176 228 178 195 243 271 274 193 188 194 203 208 213 222 227 228 223 214 208 204 200 197 195 196 195 187 187 186 184 186 186 191 181 174 177 175 170 167 168 166 159 160 164 164 165 151 129 103 85 84 65 37 24 12 2 358 352 347 349 354 355 352 351 350 348
264 258 250 175 150 114 118 166 136 142 141 143 201 278 285 241 172 306 17 143 153 153 176 164 188 276 304 291 232 212 214 212 211 217 225 230 231 228 218 211 208 203 196 191 192 192 184 185 185 180 186 191 194 193 187 187 185 182 184 185 178 168 166 164 165 170 160 144 137 118 109 50 351 6 7 350 344 345 348 352 354 353 352 347 345 345
239 243 44 83 125 120 121 289 86 59 343 284 228 243 271 266 153 150 124 127 99 30 118 125 67 316 284 263 258 219 213 218 215 217 226 232 233 231 225 217 212 207 201 191 185 189 190 188 183 181 189 189 191 198 197 193 190 188 188 188 184 177 171 166 168 171 164 157 164 175 221 282 309 320 319 323 339 352 355 356 355 353 349 342 342 345
253 250 221 325 300 111 87 317 143 135 328 318 247 232 255 266 109 119 124 122 94 335 217 132 83 289 281 256 250 225 197 215 216 212 219 227 228 226 224 218 208 206 204 195 187 190 195 191 181 181 190 188 191 197 194 191 189 186 184 180 181 179 171 166 164 161 166 180 211 256 271 279 287 298 319 342 356 359 356 355 352 349 344 341 344 348
266 283 123 145 264 19 10 295 217 165 118 327 250 215 221 131 121 134 140 135 142 214 220 160 148 260 302 268 242 227 202 220 218 210 213 218 220 220 219 214 202 200 201 196 194 198 199 191 181 184 189 187 190 192 187 188 189 186 182 177 176 173 164 161 161 164 195 251 270 282 290 297 312 332 353 6 5 0 357 351 347 347 345 346 350 354
261 324 63 114 124 338 302 271 230 159 126 242 238 159 129 130 143 161 159 157 177 148 151 152 125 123 289 270 242 201 209 245 235 217 211 211 215 216 213 211 204 201 201 196 197 203 201 191 187 192 187 182 187 189 185 187 188 184 180 175 173 171 166 165 171 189 223 268 296 317 327 333 343 356 8 13 7 1 354 346 346 349 348 352 358 2
248 224 232 215 195 229 244 222 193 150 135 254 234 134 151 155 153 168 160 146 114 95 126 223 155 111 265 281 325 118 210 251 237 216 205 207 211 208 203 206 206 205 204 200 201 205 199 190 191 192 181 178 185 186 185 186 186 185 184 181 180 178 173 166 165 187 198 14 7 0 353 352 358 5 12 13 4 356 348 345 350 351 354 359 2 4
246 211 206 170 160 210 222 209 181 159 194 251 138 74 38 69 86 110 115 69 45 64 222 214 187 168 266 280 17 93 229 248 237 204 198 207 206 199 196 200 203 204 202 202 205 204 195 188 189 186 178 178 182 182 184 187 188 191 192 192 187 172 155 139 127 121 65 42 26 15 6 3 7 12 14 6 358 358 352 351 357 359 2 5 5 5
270 272 228 150 196 214 207 214 196 180 203 190 89 68 45 44 47 54 56 67 64 315 258 202 189 175 287 274 211 170 209 220 183 159 195 204 198 192 194 198 200 201 199 200 203 200 190 186 185 182 179 178 178 179 186 191 192 196 194 188 172 147 129 117 95 64 53 46 39 35 27 18 18 16 11 4 1 3 357 358 4 6 5 5 4 3
316 307 283 212 225 220 169 217 213 167 175 118 87 85 66 12 18 37 0 35 101 258 266 205 181 157 226 261 231 219 255 111 137 171 192 195 192 190 192 196 198 199 198 198 198 192 184 182 180 180 181 179 176 179 187 192 192 189 180 171 155 130 113 98 80 66 57 47 44 43 37 33 31 25 18 13 11 8 3 5 9 7 4 3 1 358
315 269 280 288 234 202 148 188 285 358 44 114 112 80 80 329 8 43 294 308 206 247 273 182 159 159 238 248 243 263 280 283 199 200 200 196 191 187 189 193 194 194 196 196 193 187 182 180 179 179 181 178 179 186 188 183 179 175 162 156 152 130 111 98 81 66 54 44 43 43 42 43 40 32 27 22 18 14 9 10 9 6 7 4 360 356
304 298 311 320 261 202 165 153 235 291 57 148 161 133 128 134 93 249 249 258 253 251 297 275 177 199 277 269 257 270 278 280 275 255 222 204 192 186 186 188 189 189 191 193 190 185 182 181 178 179 181 180 185 191 181 165 171 171 157 154 160 136 116 106 82 58 44 39 40 42 47 48 42 35 32 27 22 17 12 11 9 8 8 4 359 357
209 308 263 217 245 186 172 178 181 181 174 183 166 137 144 155 161 232 224 197 228 233 302 309 193 197 246 241 234 263 302 295 276 244 195 186 185 183 180 180 183 184 187 190 189 185 183 180 178 179 180 183 189 185 165 161 174 172 162 164 162 136 115 98 61 34 23 29 39 47 50 45 38 33 30 27 22 16 13 12 10 8 6 2 359 357
162 263 249 243 234 161 170 193 163 133 147 248 145 115 171 185 163 192 194 174 173 151 144 222 226 220 217 221 208 34 0 350 155 152 142 150 168 174 173 177 181 181 184 187 187 186 182 178 178 178 179 186 190 180 165 175 179 175 171 167 159 139 120 80 38 28 34 47 54 52 46 39 34 30 26 24 21 18 16 13 10 9 5 0 357 352
150 264 273 302 280 195 182 179 160 152 181 233 131 181 226 173 129 120 258 71 98 147 233 233 271 300 313 299 54 62 40 48 95 124 131 141 156 165 171 177 180 182 185 186 187 186 179 175 176 177 180 187 185 173 172 181 179 177 178 172 161 141 113 66 44 54 65 66 59 50 44 37 31 27 24 22 21 19 14 7 8 8 3 358 354 348
166 268 283 260 249 253 207 169 183 202 157 120 219 215 197 96 84 101 211 5 42 226 267 299 273 295 318 292 324 45 81 112 114 116 125 139 153 162 171 178 181 184 186 187 188 185 176 172 175 178 181 183 179 175 177 177 174 174 176 171 156 131 87 60 68 80 78 65 55 49 41 33 28 26 24 21 17 13 6 2 6 4 359 357 352 346
157 267 289 249 219 290 316 141 282 295 168 129 189 168 120 139 322 74 148 163 269 248 285 309 297 268 214 228 280 251 185 181 160 142 142 152 160 165 170 177 183 185 185 187 187 179 167 171 179 180 179 173 171 178 174 168 166 161 157 154 141 114 81 77 82 88 81 62 50 42 33 28 27 26 23 19 13 4 1 4 7 5 1 358 353 347
138 145 288 277 234 309 19 112 207 274 327 42 71 59 57 154 170 167 155 159 177 200 264 307 322 277 228 216 203 208 206 187 167 167 171 171 174 173 173 180 184 183 184 184 183 172 164 173 182 181 179 172 170 175 170 164 162 155 151 147 125 93 87 89 90 87 75 59 44 34 28 24 24 24 21 20 17 13 16 19 19 16 10 3 0 358
130 152 249 291 308 306 315 197 190 198 195 88 94 245 282 118 136 156 107 84 131 152 178 243 304 272 247 205 204 218 206 179 168 171 176 181 185 181 180 184 182 178 181 181 178 168 164 172 179 181 182 176 172 173 168 163 161 154 149 135 104 92 94 95 99 87 65 53 39 28 24 22 24 24 24 27 28 28 32 36 38 34 23 15 12 9
170 158 207 279 316 263 247 242 195 179 166 145 162 195 187 150 128 136 241 298 96 128 162 162 220 268 260 188 242 248 183 166 169 168 173 181 183 181 182 183 178 176 177 175 171 161 160 169 178 179 178 174 171 168 162 165 163 154 145 123 103 102 102 102 101 83 57 43 33 27 27 28 28 27 28 32 35 37 39 41 43 38 28 21 16 11
155 124 176 252 247 231 255 259 190 174 150 132 163 189 162 146 135 152 202 221 114 99 130 120 156 270 266 262 294 247 174 164 168 171 170 171 173 175 175 175 177 176 170 168 166 155 157 168 176 176 172 166 163 158 157 164 163 153 142 128 119 113 116 116 97 70 46 33 32 33 35 33 31 31 33 36 38 39 39 39 38 32 26 24 18 14
140 124 162 271 297 292 291 304 138 159 114 105 285 169 139 159 149 154 181 164 130 153 136 86 284 268 276 340 335 209 169 158 160 162 157 158 162 167 170 174 176 167 157 159 156 149 156 167 171 171 164 152 149 153 158 164 164 156 140 124 123 121 124 115 80 53 35 30 35 40 40 39 41 41 41 43 41 39 42 48 49 45 41 37 32 30
181 167 136 148 338 342 339 351 359 354 69 119 272 270 143 132 111 113 122 83 103 188 148 115 224 258 292 9 32 104 134 132 137 140 141 150 154 158 166 163 148 141 145 148 143 144 154 160 160 162 155 146 149 156 161 165 165 157 136 123 126 128 124 105 69 45 31 29 37 45 50 52 53 51 49 49 44 44 56 62 59 56 55 53 49 47
174 176 142 146 159 169 159 274 274 271 231 196 242 46 95 127 131 134 120 84 119 186 150 146 210 259 310 62 86 98 111 110 121 130 136 147 153 156 154 143 141 150 156 151 142 144 149 148 151 154 145 146 154 157 162 164 158 146 133 129 130 126 116 97 67 40 32 38 49 58 62 61 58 55 54 52 49 53 64 65 59 56 56 56 57 56
133 54 146 143 159 184 189 215 228 174 148 258 5 37 40 61 160 118 110 147 174 154 181 225 197 193 227 168 143 134 133 129 132 137 142 149 155 159 147 141 154 166 163 153 144 143 144 145 151 148 135 141 150 154 161 162 150 137 132 129 126 120 108 89 67 51 52 61 64 64 64 62 59 56 54 56 55 57 59 57 55 55 53 55 60 61
81 45 166 134 157 217 209 227 255 90 116 163 36 22 13 9 5 89 115 177 147 123 234 254 180 164 205 177 160 155 144 141 144 144 148 156 158 158 146 140 151 157 150 147 147 144 143 146 146 139 134 139 143 145 149 148 139 132 129 124 119 115 99 77 67 68 71 72 68 67 67 62 57 56 56 56 57 58 56 52 51 51 51 58 65 66
104 104 180 110 29 342 351 291 288 93 106 79 60 27 355 22 60 96 111 121 114 124 241 238 164 154 239 158 158 164 154 150 148 145 151 155 151 149 146 142 149 148 134 132 142 147 148 145 140 137 139 141 141 141 140 137 135 132 127 119 114 104 84 71 73 77 79 77 73 73 71 63 57 57 58 55 54 58 59 55 52 49 52 64 69 67
107 54 356 91 47 7 11 353 329 100 102 50 42 31 20 59 82 98 113 102 91 100 254 174 121 76 346 160 155 152 148 145 143 147 151 149 143 145 148 148 152 149 137 134 140 144 145 141 139 144 148 148 149 148 143 139 136 129 120 116 111 96 80 79 78 77 82 82 76 75 71 61 56 58 58 54 52 55 57 57 56 54 60 69 69 65
96 72 341 80 62 355 0 10 2 49 94 76 43 29 35 54 57 56 57 45 64 68 45 84 93 37 333 133 127 134 142 141 144 152 151 144 142 145 148 152 155 152 145 142 144 145 143 139 142 153 155 151 150 145 139 135 127 120 118 114 106 94 88 85 74 71 81 85 81 77 68 57 53 54 56 53 50 51 55 59 59 60 66 70 67 63
75 100 1 67 73 331 343 19 6 21 70 69 30 12 19 37 46 27 7 17 104 123 86 78 95 253 172 123 120 133 142 144 149 153 147 144 147 148 151 157 158 154 149 148 153 157 155 147 147 154 153 148 143 134 127 125 122 121 119 110 104 97 90 85 74 70 78 84 82 78 69 54 46 45 47 48 47 46 51 59 63 64 66 67 65 61
90 118 123 85 95 278 320 8 1 20 54 39 326 332 0 41 88 103 5 17 69 129 120 127 218 200 153 136 132 140 149 153 156 154 151 154 155 154 158 164 162 157 155 157 161 163 160 151 149 155 152 143 133 125 121 122 122 122 116 108 104 96 88 86 78 70 74 80 80 82 87 64 39 37 36 38 43 43 46 58 67 68 67 65 63 59
90 103 134 126 114 216 302 359 19 34 70 239 256 251 236 191 129 128 86 4 358 52 108 141 162 151 152 155 153 153 154 154 154 155 158 163 164 162 163 167 164 160 159 162 164 164 160 153 151 153 148 137 130 128 127 126 124 120 114 106 99 93 90 90 77 71 74 77 80 101 134 136 78 38 27 30 40 42 46 60 71 72 70 65 60 56
101 96 128 106 105 152 329 21 47 215 237 252 291 294 214 158 126 117 101 10 314 83 102 112 130 145 143 136 137 137 136 138 143 152 161 166 170 171 167 166 167 167 166 167 168 168 163 155 153 151 144 137 138 137 132 130 126 119 112 103 98 98 97 89 82 81 80 79 82 102 132 140 119 59 33 40 50 53 59 73 78 75 72 66 59 52
132 125 120 59 88 143 68 56 153 240 264 283 323 329 134 119 110 103 70 299 221 191 159 137 134 130 114 114 123 127 129 131 128 137 161 168 172 177 176 173 175 176 173 173 175 173 164 158 155 153 148 142 141 138 132 128 122 116 112 107 103 102 99 94 95 90 80 74 78 92 110 113 104 88 78 74 68 66 76 93 90 81 75 64 53 44
126 133 124 79 77 138 118 145 248 310 307 289 297 260 166 139 159 150 140 250 225 189 163 141 129 124 116 117 124 128 127 123 107 110 153 166 173 180 181 182 183 176 172 176 177 167 160 159 157 155 150 142 138 137 131 125 118 114 114 112 107 103 98 95 95 91 82 74 75 86 97 98 93 90 88 78 70 75 86 96 93 80 63 41 30 27
92 146 152 132 125 119 106 83 0 9 287 251 237 234 202 145 173 149 119 272 240 168 160 149 134 134 129 125 130 132 127 122 102 112 147 162 172 176 175 178 181 172 169 171 164 156 158 161 158 155 149 140 138 136 127 119 115 115 116 114 112 106 96 91 91 88 81 73 75 83 90 91 91 93 97 91 87 89 86 81 75 58 37 20 10 10
42 52 114 110 116 134 116 121 171 197 245 242 232 248 254 174 175 113 63 310 245 164 158 150 139 143 142 139 142 141 131 131 165 153 154 165 176 178 171 171 171 167 165 164 158 156 160 160 156 152 146 141 140 135 124 116 114 118 121 118 113 105 96 92 93 89 80 73 76 86 92 89 86 97 112 115 106 95 80 67 60 47 31 17 8 4
22 16 55 99 134 153 127 139 210 220 240 245 250 260 197 166 143 84 51 285 219 164 162 157 149 150 149 146 149 152 145 168 181 171 166 170 176 180 178 174 169 166 165 162 160 159 160 160 157 150 145 143 139 132 124 122 120 123 126 121 112 105 97 93 93 95 95 88 82 89 96 87 81 95 108 110 103 89 69 56 51 40 28 19 13 9
359 6 55 122 139 139 127 135 245 249 237 240 234 174 151 138 96 87 202 235 176 161 167 164 155 155 156 155 159 161 142 142 176 171 167 167 168 169 174 173 170 169 167 162 159 158 158 159 155 147 142 141 137 131 129 132 130 128 130 125 115 107 100 95 93 94 96 95 91 94 100 94 90 97 102 101 95 80 60 48 39 27 19 17 12 6
13 30 69 116 123 129 130 126 241 272 246 185 153 155 149 124 108 207 220 187 164 162 167 166 161 161 161 160 161 159 142 135 163 165 162 165 166 164 169 172 169 165 159 154 154 157 158 158 152 147 144 141 137 135 137 139 135 131 134 133 124 115 106 99 95 91 89 87 89 95 104 110 110 110 108 104 93 74 52 30 12 3 357 352 349 349
159 115 124 177 155 121 71 74 101 246 234 153 131 144 159 154 195 177 126 132 161 163 161 164 165 165 164 159 155 154 146 143 156 160 159 164 168 166 168 169 162 155 153 152 155 159 160 157 153 150 147 144 141 140 141 142 144 138 139 141 134 124 116 107 99 91 85 80 76 78 87 100 115 122 120 106 56 18 4 350 340 337 334 330 328 330
156 125 192 230 185 120 98 168 192 233 254 180 129 152 209 215 200 162 134 135 156 162 161 162 164 168 169 164 157 154 149 149 157 160 160 163 167 165 164 161 155 153 154 155 157 159 159 157 155 152 150 149 147 145 143 146 154 146 145 148 142 132 124 117 107 97 88 79 66 63 65 69 87 105 105 35 356 347 344 337 329 327 326 323 321 321
209 191 176 166 168 164 167 213 236 301 353 20 242 293 158 145 164 169 156 152 157 164 167 164 162 167 172 167 160 155 153 156 160 161 161 162 163 163 161 157 152 152 154 155 156 158 160 158 155 153 154 155 154 152 149 154 161 150 149 153 149 141 135 129 120 109 98 83 59 46 39 34 43 40 0 337 333 336 337 333 328 328 327 324 321 318
231 192 156 119 83 212 73 26 4 26 48 79 110 113 118 131 149 159 154 155 160 167 172 169 167 170 172 169 164 157 157 160 160 159 159 159 159 161 160 156 153 153 155 157 159 160 161 159 156 156 159 158 157 158 163 168 162 152 151 158 160 158 154 147 135 119 104 85 51 1 333 330 322 313 311 310 309 311 315 318 320 322 323 324 324 319
299 109 108 82 57 83 51 354 354 27 63 89 108 119 125 134 147 150 147 153 162 168 171 170 170 170 171 174 172 163 161 161 159 158 160 160 159 159 157 155 156 156 157 160 163 163 162 160 160 163 164 160 159 166 176 172 161 150 149 159 170 175 169 160 153 141 119 80 20 344 340 343 329 313 308 304 299 297 299 302 306 309 312 317 319 316
346 47 81 87 65 105 217 278 348 68 88 101 116 132 140 142 148 151 148 153 160 164 167 169 170 170 172 177 177 165 161 162 161 159 161 161 159 158 158 158 159 159 161 165 168 166 164 162 163 166 165 160 160 169 173 165 157 153 150 156 170 179 176 173 174 166 125 25 355 344 343 342 337 330 323 313 305 301 301 303 304 303 306 310 311 310
22 31 109 112 76 57 273 267 67 74 76 107 138 152 154 151 150 150 151 158 161 161 162 165 168 171 172 175 175 164 160 164 166 162 161 161 160 161 162 162 160 160 164 169 171 168 166 167 167 165 162 159 161 164 163 158 156 158 158 157 163 172 181 190 200 212 323 338 340 342 342 337 334 337 338 334 329 322 316 315 311 306 307 310 309 307
63 119 135 96 88 109 230 199 169 111 94 178 176 167 164 161 155 153 158 163 163 161 160 161 164 168 170 172 170 162 160 165 168 164 163 164 164 165 166 164 164 166 168 170 172 171 169 169 168 163 160 159 157 154 155 156 158 163 169 167 156 151 178 209 229 260 295 316 325 329 331 331 329 334 340 343 341 334 327 323 318 310 309 312 313 310
126 178 177 141 138 225 205 182 171 137 128 167 173 169 169 170 167 164 166 168 167 166 163 160 160 164 167 169 167 159 156 163 167 167 167 168 169 169 168 166 168 171 171 171 171 171 171 170 168 164 160 152 143 142 151 160 165 169 173 168 149 129 136 197 250 269 285 301 307 311 318 323 325 328 333 339 340 335 330 327 326 320 311 308 311 315